Mura (Bages)





Hora UTC 05:35
Temperatura 12.7 ºC
Humedad 92.0 %
Presión 1005.4 hPa
Pluja 0.0 mm
Velocidad viento 0.0 km/h
Dirección viento

Datos diarios 2024-05-30



Hora UTC (invierno +1h; verano +2h)
Temperatura (ºC) Humedad (%) Presión (hPa) Velocidad viento (km/h) Precipitación (mm)
Hora UTC Aire Humedad Presión Vel. Dir. Vel. Max Dir. Intent. máx 5 min.
00:05 14.2 86.0 1007.8 0.0 0.0 0.0
00:15 14.2 87.0 1007.5 0.0 0.0 0.0
00:25 14.1 87.0 1007.3 0.0 0.0 0.0
00:35 14.2 87.0 1007.3 0.0 0.0 0.0
00:45 14.2 87.0 1007.0 0.0 0.0 0.0
00:55 14.2 87.0 1006.9 0.0 0.0 0.0
01:05 14.3 88.0 1006.9 0.0 1.6 0.0
01:15 14.4 87.0 1006.9 0.0 1.6 0.0
01:25 14.2 87.0 1006.6 0.0 1.6 0.0
01:35 14.2 86.0 1006.6 0.0 1.6 0.0
01:45 14.1 85.0 1006.4 0.0 1.6 0.0
01:55 14.0 85.0 1006.3 0.0 1.6 0.0
02:05 13.7 86.0 1006.3 0.0 1.6 0.0
02:15 13.4 87.0 1006.3 0.0 1.6 0.0
02:25 13.2 87.0 1006.2 0.0 1.6 0.0
02:35 12.9 88.0 1006.2 0.0 1.6 0.0
02:45 12.8 88.0 1006.3 0.0 1.6 0.0
02:55 12.6 89.0 1006.0 0.0 1.6 0.0
03:05 12.6 89.0 1006.0 0.0 1.6 0.0
03:15 12.5 89.0 1006.0 0.0 1.6 0.0
03:25 12.4 90.0 1005.8 0.0 1.6 0.0
03:35 12.5 90.0 1005.8 0.0 1.6 0.0
03:45 12.6 90.0 1005.6 0.0 1.6 0.0
03:55 12.4 91.0 1005.3 0.0 1.6 0.0
04:05 12.6 91.0 1005.3 0.0 1.6 0.0
04:15 12.6 91.0 1005.3 0.0 1.6 0.0
04:25 12.6 91.0 1005.4 0.0 1.6 0.0
04:35 12.5 90.0 1005.4 0.0 1.6 0.0
04:45 12.3 91.0 1005.6 0.0 1.6 0.0
04:55 12.2 92.0 1005.5 0.0 1.6 0.0
05:05 12.3 92.0 1005.5 0.0 1.6 0.0
05:15 12.3 92.0 1005.5 0.0 1.6 0.0
05:25 12.4 92.0 1005.4 0.0 1.6 0.0
05:35 12.7 92.0 1005.4 0.0 1.6 0.0
Máxima 14.4 92.0 1007.8 0.0 1.6 0.0
Mínima 12.2 85.0 1005.3
Total 0.0